Vorticity
8 7 7 7 7 9 10 11 12 11 10 8 7 7 8 9 9 8 7 7 7 5 5 6 5 6 6 6 6 7 7 7 7 7 9 9 8 8 6 5 6 6 6
8 7 7 7 8 8 8 9 10 9 7 5 6 7 8 7 7 7 8 8 8 8 10 9 10 11 10 10 9 9 8 8 8 7 7 9 9 9 9 9 8 9 9
7 7 6 7 9 9 9 9 10 11 8 7 7 6 5 5 7 8 9 9 7 6 5 5 6 6 8 8 8 9 10 11 11 11 10 9 8 9 10 8 7 6 7
9 8 8 9 9 8 7 7 11 10 8 7 6 6 6 5 7 5 6 6 5 3 4 8 10 13 14 14 13 11 11 10 9 8 7 7 7 7 8 12 13 11 10
10 8 8 8 8 8 7 9 9 7 6 5 3 -1 7 12 13 9 2 4 11 16 13 14 14 15 14 12 12 11 11 11 9 9 9 10 9 10 13 14 14 17 19
13 10 9 9 8 9 8 7 7 5 4 2 1 20 9 8 3 11 6 10 10 16 12 13 12 11 10 10 10 11 11 13 12 13 14 15 16 19 19 17 17 14 16
15 14 10 9 9 8 7 7 4 2 3 7 21 4 10 15 6 5 8 12 14 14 13 12 11 11 11 10 9 9 11 13 16 16 16 16 17 19 16 12 9 7 11
16 15 11 9 8 7 7 5 -1 8 19 15 17 14 5 4 6 10 13 15 14 12 11 11 11 11 9 11 11 12 13 15 15 11 13 14 12 12 12 9 10 12 12
15 14 10 10 7 5 5 1 20 19 25 11 6 5 5 7 13 14 14 12 10 8 8 8 8 7 7 10 10 12 11 12 11 11 14 15 12 11 12 13 11 16 9
12 8 8 7 7 11 16 16 23 9 7 5 4 4 7 12 13 13 12 9 8 7 8 8 9 9 9 10 10 12 13 13 9 11 15 13 15 16 13 15 24 8 13
11 11 11 11 13 15 20 14 8 4 2 2 5 10 14 13 11 12 9 8 8 8 8 8 8 8 7 9 11 17 13 10 10 12 13 10 15 17 13 21 6 13 7
10 10 11 12 17 12 6 3 2 0 2 8 13 15 15 11 11 11 9 8 7 8 8 8 10 9 9 8 14 14 12 13 14 16 13 8 15 10 19 15 9 10 30
9 9 13 15 6 2 2 -1 1 5 10 15 16 16 13 8 10 11 8 8 7 8 7 7 9 10 13 12 14 12 13 15 18 12 11 16 18 13 18 9 12 23 13
10 15 6 2 1 -3 -0 3 9 15 18 18 17 14 10 9 12 11 10 8 6 5 7 5 8 13 13 12 13 17 18 20 13 11 15 18 13 17 11 14 20 17 9
6 2 3 -2 0 3 7 13 16 19 18 16 13 10 10 11 13 12 9 6 6 7 8 8 7 12 11 10 17 18 18 15 17 14 16 12 17 11 14 23 19 12 13
4 2 2 3 7 12 17 19 16 17 15 11 9 9 11 11 11 7 4 5 6 8 7 9 7 11 10 16 17 17 17 19 11 16 11 15 14 14 19 21 14 7 16
2 5 11 15 16 17 16 17 15 14 10 8 7 11 14 11 8 6 6 7 9 12 9 8 8 10 15 19 17 16 17 17 13 11 15 11 16 19 21 18 19 20 15
14 15 15 15 16 16 13 11 9 8 7 10 13 14 12 9 8 9 11 12 14 12 12 8 11 13 18 16 18 18 18 13 12 14 10 15 16 18 13 13 17 13 7
14 14 12 11 10 9 8 7 8 8 9 8 8 7 11 12 13 15 18 17 15 15 8 9 13 17 17 20 20 18 16 14 12 11 12 17 14 17 12 18 16 12 11
7 7 9 10 12 12 12 13 13 13 14 14 15 18 19 20 20 18 16 14 11 6 11 13 17 19 22 22 19 15 13 12 12 12 13 18 16 15 12 20 11 9 10
15 19 21 22 22 21 21 21 20 20 20 18 16 16 15 11 10 12 12 8 8 12 15 16 23 24 22 19 19 14 11 13 12 11 18 14 15 16 19 12 8 8 9
20 18 17 16 17 16 16 17 17 15 12 11 12 13 14 15 15 11 9 11 14 16 20 24 21 20 20 20 14 12 12 14 15 18 13 13 13 14 14 8 6 9 12
15 17 18 19 16 12 11 13 13 15 17 16 15 16 15 13 10 11 14 15 16 26 23 20 21 25 19 12 11 10 15 16 16 13 12 11 9 13 16 14 11 8 8
16 16 17 16 16 13 12 16 20 17 14 12 12 12 11 12 14 16 15 20 25 22 20 21 22 16 12 13 11 16 18 15 12 13 11 9 10 10 11 12 10 9 12
15 15 15 14 15 16 19 15 13 13 12 10 10 13 18 19 14 17 24 22 20 18 17 16 15 13 13 12 15 17 12 13 11 9 8 9 12 14 14 13 14 15 13
9 11 13 15 16 15 11 12 12 8 10 19 23 15 13 18 22 23 21 18 16 15 14 14 14 14 15 16 17 8 9 8 7 8 9 12 14 16 15 15 14 14 15
Height
3099 3097 3095 3093 3090 3088 3085 3082 3080 3077 3075 3073 3070 3068 3065 3062 3059 3056 3053 3050 3048 3045 3041 3037 3034 3028 3026 3022 3018 3014 3010 3005 2996 2998 3001 3002 2999 2997 2994 2991 2989 2987 2986
3091 3090 3087 3085 3083 3081 3079 3077 3075 3072 3069 3066 3064 3061 3058 3054 3050 3047 3045 3041 3039 3036 3032 3028 3024 3020 3016 3012 3007 3003 2999 2995 2989 2983 2983 2984 2984 2983 2980 2977 2975 2972 2969
3084 3083 3081 3079 3077 3074 3072 3070 3067 3065 3063 3060 3057 3053 3050 3047 3043 3038 3035 3033 3030 3026 3022 3017 3013 3009 3005 3001 2996 2992 2988 2983 2979 2974 2969 2967 2964 2963 2963 2962 2960 2957 2954
3077 3076 3074 3072 3069 3067 3065 3062 3060 3058 3055 3052 3049 3046 3042 3039 3034 3030 3026 3022 3019 3016 3011 3006 3002 2998 2993 2988 2984 2980 2975 2971 2967 2963 2959 2954 2950 2948 2945 2942 2941 2940 2938
3069 3067 3066 3063 3062 3059 3057 3055 3053 3050 3047 3044 3040 3036 3034 3029 3025 3021 3016 3012 3009 3004 3000 2995 2990 2985 2981 2976 2971 2967 2962 2958 2954 2949 2945 2940 2937 2933 2930 2926 2921 2920 2920
3061 3059 3058 3056 3054 3053 3050 3047 3045 3042 3039 3035 3030 3027 3024 3019 3014 3011 3006 3001 2997 2991 2986 2983 2979 2975 2971 2966 2961 2956 2951 2945 2941 2936 2931 2926 2923 2920 2917 2913 2909 2906 2903
3054 3052 3051 3049 3047 3044 3042 3039 3036 3032 3028 3026 3022 3018 3014 3011 3006 3002 2996 2991 2985 2981 2976 2971 2968 2964 2959 2954 2950 2946 2942 2937 2933 2926 2919 2915 2911 2909 2905 2901 2899 2894 2892
3045 3044 3044 3042 3039 3036 3033 3030 3026 3022 3020 3016 3013 3009 3005 3002 2996 2991 2985 2981 2976 2971 2966 2962 2957 2952 2947 2941 2936 2930 2927 2924 2921 2916 2911 2906 2901 2898 2894 2890 2885 2882 2880
3040 3038 3036 3035 3032 3028 3025 3020 3018 3014 3011 3008 3004 3001 2996 2992 2987 2981 2974 2969 2965 2962 2957 2953 2948 2943 2937 2931 2925 2919 2915 2912 2908 2903 2898 2894 2891 2887 2883 2879 2875 2871 2868
3034 3031 3028 3025 3024 3021 3017 3012 3008 3006 3003 3000 2995 2990 2985 2980 2975 2970 2965 2959 2955 2950 2948 2943 2939 2933 2928 2922 2915 2908 2901 2899 2893 2890 2886 2882 2878 2875 2873 2870 2866 2862 2859
3026 3024 3022 3018 3015 3013 3008 3005 3000 2997 2994 2991 2985 2979 2974 2970 2964 2960 2955 2949 2945 2939 2935 2931 2927 2922 2917 2911 2904 2898 2892 2887 2881 2877 2872 2869 2866 2863 2861 2858 2856 2852 2849
3020 3017 3015 3011 3007 3003 2999 2996 2992 2988 2983 2979 2972 2967 2964 2959 2954 2949 2944 2940 2935 2929 2925 2920 2915 2910 2905 2899 2893 2888 2882 2876 2871 2866 2861 2858 2855 2852 2850 2847 2844 2841 2838
3011 3009 3006 3003 3000 2997 2992 2988 2983 2977 2971 2965 2959 2954 2951 2948 2944 2939 2934 2929 2925 2919 2915 2910 2904 2899 2893 2887 2882 2876 2870 2866 2861 2856 2852 2849 2845 2842 2839 2837 2834 2832 2831
3004 3002 3000 2997 2993 2989 2983 2978 2971 2964 2958 2952 2947 2942 2938 2935 2932 2927 2923 2919 2915 2910 2905 2900 2894 2887 2881 2876 2870 2865 2860 2856 2851 2846 2842 2838 2835 2833 2831 2828 2825 2825 2824
2997 2994 2991 2987 2982 2976 2970 2964 2957 2952 2945 2939 2936 2931 2926 2923 2921 2916 2911 2907 2903 2898 2891 2886 2881 2875 2869 2863 2858 2853 2849 2846 2842 2838 2833 2830 2827 2825 2822 2820 2818 2818 2818
2990 2986 2980 2974 2969 2962 2955 2950 2947 2940 2935 2931 2926 2920 2916 2911 2908 2905 2901 2897 2892 2887 2880 2874 2869 2863 2857 2852 2847 2842 2839 2836 2833 2829 2826 2823 2820 2817 2815 2814 2813 2813 2813
2979 2973 2967 2961 2954 2948 2943 2937 2931 2931 2927 2922 2917 2912 2907 2902 2898 2894 2889 2885 2880 2875 2869 2864 2858 2853 2847 2841 2837 2833 2829 2827 2825 2822 2819 2817 2814 2811 2809 2808 2808 2808 2809
2967 2961 2954 2948 2943 2937 2932 2927 2921 2915 2910 2908 2907 2900 2895 2890 2886 2882 2877 2871 2867 2864 2859 2853 2847 2842 2836 2831 2827 2824 2821 2819 2817 2815 2813 2811 2809 2807 2806 2805 2805 2806 2806
2955 2950 2943 2938 2932 2926 2920 2915 2909 2904 2899 2894 2891 2888 2884 2879 2874 2869 2864 2859 2855 2851 2847 2842 2836 2830 2826 2822 2819 2816 2814 2813 2812 2810 2808 2806 2804 2803 2803 2803 2803 2803 2803
2945 2939 2932 2925 2919 2913 2908 2902 2897 2892 2886 2881 2877 2873 2869 2864 2860 2856 2853 2848 2844 2840 2835 2830 2825 2820 2816 2814 2811 2810 2809 2808 2807 2805 2804 2802 2801 2800 2800 2800 2801 2801 2801
2933 2926 2919 2912 2906 2900 2895 2890 2885 2880 2875 2870 2866 2862 2858 2853 2849 2846 2842 2839 2834 2829 2824 2819 2815 2811 2809 2807 2805 2805 2804 2804 2802 2801 2800 2800 2799 2798 2798 2798 2799 2799 2799
2922 2915 2908 2902 2896 2891 2886 2881 2875 2870 2866 2862 2857 2854 2850 2845 2841 2837 2833 2828 2823 2819 2814 2810 2807 2805 2803 2802 2801 2801 2801 2800 2799 2798 2798 2798 2797 2797 2797 2797 2797 2797 2797
2912 2906 2900 2894 2888 2883 2879 2873 2868 2863 2858 2854 2849 2845 2841 2837 2833 2828 2823 2819 2814 2810 2806 2803 2801 2800 2799 2799 2798 2798 2798 2797 2797 2797 2796 2796 2796 2795 2795 2795 2795 2795 2795
2905 2899 2893 2887 2881 2876 2871 2866 2860 2855 2851 2846 2842 2837 2833 2828 2824 2819 2815 2811 2807 2804 2801 2799 2798 2797 2797 2797 2797 2796 2796 2796 2796 2796 2796 2795 2795 2794 2794 2793 2793 2793 2793
2898 2892 2887 2881 2875 2870 2864 2859 2855 2850 2845 2840 2835 2830 2825 2820 2816 2812 2809 2805 2803 2801 2799 2798 2797 2796 2796 2796 2796 2796 2796 2796 2796 2796 2795 2794 2793 2792 2792 2791 2791 2790 2790
2892 2887 2881 2875 2870 2865 2860 2855 2850 2845 2839 2834 2828 2823 2819 2814 2810 2807 2804 2802 2801 2799 2798 2797 2796 2795 2795 2795 2796 2796 2796 2796 2796 2795 2794 2792 2791 2790 2789 2789 2789 2788 2788